Regional Weather Roundup
Issued by NWS

Home | Current Version | Previous Version | Text Only | Print | Product List | Glossary Off
Versions: 1 2 3 4 5 6 7 8 9 10 11 12 13 14 15 16 17 18 19 20 21 22 23 24 25 26 27 28 29 30 31 32 33 34 35 36 37 38 39 40 41 42 43 44 45 46 47 48 49 50

000
ASUS43 KLSX 270910
RWRMO

WEATHER SUMMARY FOR MISSOURI
NATIONAL WEATHER SERVICE SPRINGFIELD MO
400 AM CDT TUE SEP 27 2016

NOTE: "FAIR" INDICATES FEW OR NO CLOUDS BELOW 12,000 FEET WITH NO
       SIGNIFICANT WEATHER AND/OR OBSTRUCTIONS TO VISIBILITY.
       CURRENT SKY AND/OR WEATHER CONDITIONS ARE NOT AVAILABLE FOR
       CHILLICOTHE AND FARMINGTON.

MOZ001>031-035>038-043-044-053-054-271000-
...NORTHERN AND WESTERN MISSOURI...

CITY           SKY/WX    TMP DP  RH WIND       PRES   REMARKS
KANSAS CTY INT CLEAR     53  45  74 SW8       30.06F
KANSAS C DTWN  CLEAR     57  46  66 SW3       30.06F
LEE`S SUMMIT   CLEAR     55  47  74 SW7       30.07F
ST JOSEPH      CLEAR     52  49  89 S6        30.06F
CHILLICOTHE      N/A     55  48  77 CALM      30.04F
KIRKSVILLE     CLEAR     52  45  77 W6        30.02F

$$
MOZ066>068-077>081-088>096-101>105-271000-
...SOUTHWEST MISSOURI...

CITY           SKY/WX    TMP DP  RH WIND       PRES   REMARKS
SPRINGFIELD    CLEAR     49  44  83 S3        30.11F
JOPLIN         CLEAR     50  45  83 S3        30.12F
BRANSON        CLEAR     50  46  87 SW3       30.13F

$$
MOZ032>034-039>042-045>050-055>058-069>072-271000-
...CENTRAL MISSOURI...

CITY           SKY/WX    TMP DP  RH WIND       PRES   REMARKS
COLUMBIA       CLEAR     56  44  64 W9        30.06F
JEFFERSON CITY CLEAR     51  47  86 E3        30.07F
ROLLA          CLEAR     50  45  83 SW8       30.07F
SEDALIA        CLEAR     54  45  71 SW9       30.07F
WHITEMAN AFB   CLEAR     52  46  79 SW7       30.06F
OSAGE BEACH    CLEAR     48  46  93 CALM      30.10F

$$
MOZ051-052-059>065-271000-
...EAST CENTRAL MISSOURI...

CITY           SKY/WX    TMP DP  RH WIND       PRES   REMARKS
ST LOUIS INTL  CLEAR     57  44  62 W5        30.05F
SPIRIT OF STL  CLEAR     51  48  89 CALM      30.04F
ST CHARLES     CLEAR     49  46  90 S6        30.03F

$$
MOZ072>076-082>087-097>100-106>115-271000-
...SOUTH CENTRAL AND SOUTHEAST MISSOURI...

CITY           SKY/WX    TMP DP  RH WIND       PRES   REMARKS
CAPE GIRARDEAU PTCLDY    47  45  93 CALM      30.07F FOG
FARMINGTON     CLEAR     47  46  97 CALM      30.08F
POPLAR BLUFF   CLEAR     51  48  89 CALM      30.08F
WEST PLAINS    CLEAR     50  42  74 W3        30.12F

$$




USA.gov is the U.S. government's official web portal to all federal, state and local government web resources and services.